Back to catalog

METEOR 2-6

AliveWeatherPO
NORAD 11962·PAYLOAD·🇷🇺 Russia

Launched Sep 9, 1980 from Plesetsk Cosmodrome

Loading…

Next Passes (next 24 hours)

TLE

FreshSource: Space-Track

Epoch: Sep 14, 2026, 06:19 UTC

1 11962U 80073A   26257.26369483  .00000209  00000-0  10846-3 0  9993
2 11962  81.2261   2.7708 0034729 245.4394 114.3156 14.11156868367290

Track METEOR 2-6 in real time with AllMySat

Download on the App Store